User: anonymous   Login
Location: Wayah Bald
(35.1806°N, 83.5603°W)
Time: 07:29:14
(UTC-05:00)
Language:

Meteor 1-27 Rocket - Orbit

View from above orbital plane
View from above orbital plane
View from above satellite
View from above satellite

Ground track
Ground track

The orbit data is extracted from the following two-line orbital elements,

1 09904U 77024B   14351.20647152 -.00000091  00000-0 -61489-4 0  1360
2 09904 081.2640 291.9787 0054729 021.3501 085.0104 14.06763307934435
Epoch (UTC): 17 December 2014 04:57:19
Eccentricity: 0.0054729
inclination: 81.2640°
perigee height: 831 km
apogee height: 910 km
right ascension of ascending node: 291.9787°
argument of perigee: 21.3501°
revolutions per day: 14.06763307
mean anomaly at epoch: 85.0104°
orbit number at epoch: 93443

The dashed part of the orbit path shows where the satellite is in the earth's shadow,  

DLR